User: anonymous   Login
Location: Unspecified
(0.0000°N, 0.0000°E)
Time: 19:18:21
(UTC+00:00)
Language:

Explorer 11/Cluster Stage 4 - Orbit

View from above orbital plane
View from above orbital plane
View from above satellite
View from above satellite

Ground track
Ground track

The orbit data is extracted from the following two-line orbital elements,

1 00107U 61013A   17019.38199442  .00000459  00000-0  39234-4 0  9990
2 00107  28.7921   9.5766 0549826 235.8031 118.9244 14.08157593790073
Epoch (UTC): 19 January 2017 09:10:04
Eccentricity: 0.0549826
inclination: 28.7921°
perigee height: 467 km
apogee height: 1264 km
right ascension of ascending node: 9.5766°
argument of perigee: 235.8031°
revolutions per day: 14.08157593
mean anomaly at epoch: 118.9244°
orbit number at epoch: 79007

The dashed part of the orbit path shows where the satellite is in the earth's shadow,  

DLR